Location: Observatoire
(46.1952°N, 5.3391°E)
Time: 04:31:07
(UTC+02:00)

ITAMSAT 1 - Pass Details

Date: 01 May 2024
Orbit: 782 x 796 km, 98.8° (Epoch: 24 May)

Event Time Altitude Azimuth Distance (km) Brightness Sun altitude
Exits shadow 21:26:16 - 147° (SSE) 2,819 10.0 -6.8°
Reaches altitude 10° 21:27:26 10° 145° (SE) 2,360 9.6 -6.9°
Maximum altitude 21:32:29 53° 70° (ENE) 977 8.0 -7.7°
Drops below altitude 10° 21:37:34 10° 354° (N) 2,371 10.7 -8.4°
Sets 21:39:56 0° 350° (N) 3,303 11.6 -8.8°
